Location: Mountain Grove
(34.0887°N, 86.6172°W)
Time: 00:47:48
(UTC+00:00)

Cosmos 2346 Rocket - Pass Details

Date: 14 July 2020
Orbit: 936 x 981 km, 82.9° (Epoch: 12 August)

Event Time Altitude Azimuth Distance (km) Brightness Sun altitude
Rises 07:46:46 0° 352° (N) 3,643 8.2 -28.0°
Reaches altitude 10° 07:49:17 10° 351° (N) 2,687 7.4 -27.8°
Maximum altitude 07:55:25 79° 266° (W) 966 4.3 -27.1°
Enters shadow 07:55:55 73° 215° (SW) 987 4.2 -27.1°
